Probability
0 0 0 0 0 0 0 0 0 0 0 0 0 0 0 0 0 0 0 0 0 0 0 0 0 0 0 0 0 1 1 1 0 0 0 0 0 0 0 0 0 0 0 0
0 0 0 0 0 0 0 0 0 0 0 0 0 0 0 0 0 0 0 0 0 0 0 0 0 0 0 0 0 0 0 0 0 0 0 0 0 0 0 0 0 0 0 0
0 0 0 0 0 0 0 0 0 0 0 0 0 0 0 0 0 0 0 0 0 0 0 0 0 0 0 0 0 0 0 0 0 0 0 0 0 0 0 0 0 0 0 0
0 0 0 0 0 0 0 0 0 0 0 0 0 0 0 0 0 0 0 0 0 0 0 0 0 0 0 0 0 0 0 1 1 1 0 0 0 0 0 0 0 0 0 0
0 0 0 0 0 0 0 0 0 0 0 0 0 0 0 0 0 0 0 0 0 0 0 0 0 0 0 0 0 0 0 1 2 2 1 1 0 0 0 0 0 0 0 0
0 0 0 0 0 0 0 0 0 0 0 0 0 0 0 0 0 0 0 0 0 0 0 0 0 0 0 0 0 0 0 0 1 2 2 2 1 1 0 0 0 0 0 0
0 0 0 0 0 0 0 0 0 0 0 0 0 0 0 0 0 0 0 0 0 0 0 0 0 0 0 0 0 0 0 0 0 1 2 2 2 2 1 0 0 0 0 0
0 0 0 0 0 0 0 0 0 0 0 0 0 0 0 0 0 0 0 0 0 0 0 0 0 0 0 0 0 0 0 0 0 0 1 1 2 2 1 0 0 0 0 0
0 0 0 0 0 0 0 0 0 0 0 0 0 0 0 0 0 0 0 0 0 0 0 0 0 0 0 0 0 0 0 0 0 0 0 0 1 2 1 0 0 0 0 0
0 0 0 0 0 0 0 0 0 0 0 0 0 0 0 0 0 0 0 0 0 0 0 0 0 0 0 0 0 0 0 0 0 0 0 0 0 1 1 0 0 0 0 0
0 0 0 0 0 0 0 0 0 0 0 0 0 0 0 0 0 0 0 0 0 0 0 0 0 0 0 0 0 0 0 0 0 0 0 0 0 0 0 0 0 0 0 0
0 0 0 0 0 0 0 0 0 0 0 0 0 0 0 0 0 0 0 0 0 0 0 0 0 0 0 0 0 0 0 0 0 0 0 0 0 0 0 0 0 0 0 0
0 0 0 0 0 0 0 0 0 0 0 0 0 0 0 0 0 0 0 0 0 0 0 0 0 0 0 0 0 0 0 0 0 0 0 0 0 0 0 0 0 0 0 0
0 0 0 0 0 0 0 0 0 0 0 0 0 0 0 0 0 0 0 0 0 0 0 0 0 0 0 0 0 0 0 0 0 0 0 0 0 0 0 0 0 0 0 0
0 0 0 0 0 0 0 0 0 0 0 0 0 0 0 0 0 0 0 0 0 0 0 0 0 0 0 0 0 0 0 0 0 0 0 0 0 0 0 0 0 0 0 0
0 0 0 0 0 0 0 0 0 0 0 0 0 0 0 0 0 0 0 0 0 0 0 0 0 0 0 0 0 0 0 0 0 0 0 0 0 0 0 0 0 0 0 0
0 0 0 0 0 0 0 0 0 0 0 0 0 0 0 0 0 0 0 0 0 0 0 0 0 0 0 0 0 0 0 0 0 0 0 0 0 0 0 0 0 0 0 0
0 0 0 0 0 0 0 0 0 0 0 0 0 0 0 0 0 0 0 0 0 0 0 0 0 0 0 0 0 0 0 0 0 0 0 0 0 0 0 0 0 0 0 0
0 0 0 0 0 0 0 0 0 0 0 0 0 0 0 0 0 0 0 0 0 0 0 0 0 0 0 0 0 0 0 0 0 0 0 0 0 0 0 0 0 0 0 0
0 0 0 0 0 0 0 0 0 0 0 0 0 0 0 0 0 0 0 0 0 0 0 0 0 0 0 0 0 0 0 0 0 0 0 0 0 0 0 0 0 0 0 0
0 0 0 0 0 0 0 0 0 0 0 0 0 0 0 0 0 0 0 0 0 0 0 0 0 0 0 0 0 0 0 0 0 0 0 0 0 0 0 0 0 0 0 0
0 0 0 0 0 0 0 0 0 0 0 0 0 0 0 0 0 0 0 0 0 0 0 0 0 0 0 0 0 0 0 0 0 0 0 0 0 0 0 0 0 0 0 0
0 0 0 0 0 0 0 0 0 0 0 0 0 0 0 0 0 0 0 0 0 0 0 0 0 0 0 0 0 0 0 0 0 0 0 0 0 0 0 0 0 0 0 0
0 0 0 0 0 0 0 0 0 0 0 0 0 0 0 0 0 0 0 0 0 0 0 0 0 0 0 0 0 0 0 0 0 0 0 0 0 0 0 0 0 0 0 0
0 0 0 0 0 0 0 0 0 0 0 0 0 0 0 0 0 0 0 0 0 0 0 0 0 0 0 0 0 0 0 0 0 0 0 0 0 0 0 0 0 0 0 0
0 0 0 0 0 0 0 0 0 0 0 0 0 0 0 0 0 0 0 0 0 0 0 0 0 0 0 0 0 0 0 0 0 0 0 0 0 0 0 0 0 0 0 0
Wind_Speed
7 7 10 11 12 8 5 9 8 4 4 5 7 8 8 6 7 7 7 7 6 7 6 6 6 6 6 6 7 9 10 11 9 8 8 8 8 6 6 6 7 8 8 8
6 11 10 9 10 8 6 6 6 4 2 1 4 9 9 8 8 8 8 8 7 6 5 5 6 6 6 6 7 7 9 10 10 9 8 7 6 6 7 6 8 9 9 8
11 6 9 9 8 8 7 6 5 5 3 1 2 7 10 11 10 9 8 7 6 6 6 6 6 6 5 5 6 6 7 8 10 9 6 5 5 5 6 7 7 8 9 9
11 5 9 9 9 8 7 4 1 6 4 4 5 5 7 9 10 10 9 8 7 6 5 5 5 5 4 4 3 4 5 6 7 9 8 9 8 8 7 6 6 8 9 9
8 8 8 10 10 8 2 4 4 4 3 2 3 4 8 5 7 9 9 9 7 5 5 5 4 4 3 2 1 2 3 4 5 7 9 9 8 6 4 5 7 7 7 8
2 3 5 5 5 7 7 6 5 1 2 5 8 6 7 6 7 6 7 7 6 5 4 4 5 4 3 2 1 1 1 2 3 4 6 8 8 7 5 5 5 5 4 5
4 2 1 3 7 6 7 7 4 3 4 7 5 7 9 5 4 6 6 6 6 5 5 5 5 4 3 2 1 1 1 1 1 2 2 4 6 6 5 4 4 3 3 3
11 8 9 6 7 9 9 9 8 8 7 4 1 8 8 2 3 3 4 5 5 5 4 5 4 4 4 3 1 2 2 2 2 2 2 1 3 3 3 3 3 3 2 2
12 7 9 6 2 9 8 8 5 4 3 2 7 7 6 2 2 3 4 5 6 6 6 6 5 4 4 4 2 3 4 4 4 4 4 4 4 4 4 3 3 2 2 2
3 7 6 4 2 1 4 7 4 5 7 6 6 7 7 7 10 9 9 8 7 7 7 6 5 4 4 4 4 4 5 5 5 5 5 5 5 5 5 5 5 4 4 3
2 7 5 4 10 11 5 8 7 6 6 7 5 8 4 9 10 9 9 8 9 8 8 6 5 5 4 4 4 4 5 5 5 5 6 6 6 6 6 6 5 4 4 4
5 7 5 6 3 1 7 9 9 8 7 6 4 9 1 3 4 5 6 7 7 8 7 7 6 6 5 4 4 5 5 5 5 5 6 6 6 6 6 6 6 5 5 5
9 8 7 3 3 3 6 9 9 5 4 5 6 10 1 2 3 4 6 7 7 7 7 6 6 5 5 5 5 5 5 5 5 5 6 7 6 6 6 6 6 5 5 5
8 6 9 15 9 10 7 9 10 8 6 8 12 11 4 4 4 5 6 7 8 7 7 7 6 5 5 5 5 5 5 4 5 6 7 7 6 6 6 6 6 6 5 6
7 6 6 6 3 8 9 12 14 15 14 12 13 15 12 8 8 8 8 8 9 9 9 9 8 7 6 6 5 5 5 5 5 7 7 7 6 6 6 6 6 6 6 5
6 5 4 4 4 3 5 11 17 18 16 17 14 17 9 5 5 6 8 10 10 10 10 9 9 8 8 7 7 6 6 5 6 7 7 6 6 6 6 5 5 5 5 5
8 7 7 5 3 2 10 15 16 14 14 14 21 23 7 6 7 9 10 11 12 11 11 10 10 9 8 7 7 7 7 7 7 7 6 6 5 6 5 5 5 5 5 4
9 8 5 4 6 11 14 7 12 15 16 16 15 11 7 7 6 6 8 11 11 11 10 10 9 9 7 7 7 8 7 7 7 7 6 5 5 5 5 5 5 4 4 4
7 9 6 5 7 9 8 7 11 13 16 14 16 14 8 4 2 3 3 5 7 8 8 8 8 9 8 8 8 9 8 7 7 6 6 5 4 5 5 5 4 3 3 3
4 6 6 7 7 12 9 5 5 6 13 9 9 10 7 6 7 7 4 4 5 7 8 8 9 9 9 8 8 9 8 7 6 5 5 4 4 4 4 3 3 2 3 3
9 7 9 8 7 9 4 3 7 10 11 2 4 5 5 8 7 4 7 6 7 8 9 10 10 9 7 7 9 9 8 6 5 5 5 4 4 3 3 2 2 2 3 3
12 9 9 7 8 11 4 6 8 5 1 1 0 0 3 4 5 7 8 8 9 10 9 10 10 9 7 6 9 9 7 5 5 4 4 4 3 3 2 2 2 2 2 3
9 9 7 8 8 1 3 3 2 2 2 1 1 2 5 5 5 6 7 8 8 9 9 8 10 10 7 6 6 8 6 5 4 4 3 3 2 2 2 2 2 2 2 2
3 2 3 3 4 2 2 2 1 2 2 2 2 3 4 5 7 7 8 8 8 8 8 8 9 9 7 6 7 6 6 4 4 4 3 2 2 2 2 1 1 1 2 2
4 5 4 3 1 1 1 2 3 3 3 4 3 3 4 7 7 7 7 7 7 7 6 6 7 8 7 6 6 6 4 4 4 3 3 2 2 1 1 1 1 2 2 2
4 6 6 5 5 5 3 3 5 4 3 3 4 3 3 6 7 8 7 6 6 7 7 7 7 8 7 6 6 4 3 3 3 3 2 1 1 1 1 2 3 4 5 7
Wind_Direction
181 198 204 200 212 238 218 208 211 179 128 183 220 242 243 209 199 220 234 235 219 208 199 186 179 174 175 184 185 183 182 184 183 187 191 195 200 197 198 198 196 197 195 194
172 218 210 208 206 228 258 234 207 110 96 207 250 254 251 238 219 212 218 226 223 213 197 180 169 166 176 188 194 193 191 188 188 192 193 196 196 199 202 201 201 200 199 196
191 192 197 208 196 199 225 231 208 139 123 240 300 280 241 238 228 222 220 224 227 212 199 180 173 172 174 189 198 203 203 199 194 190 185 185 196 200 199 201 202 202 199 197
213 197 183 191 194 185 213 216 169 126 144 212 187 268 255 217 215 217 219 219 223 218 198 173 167 166 170 189 201 215 214 210 201 190 190 190 198 207 205 195 197 196 198 199
201 180 179 192 194 182 169 134 131 146 192 257 198 245 272 218 211 218 216 213 210 194 171 160 143 132 118 122 180 225 233 224 209 197 194 196 206 207 200 193 192 192 193 197
151 159 175 184 170 159 121 93 81 100 193 247 212 212 263 215 205 209 209 192 168 145 133 121 105 97 93 78 74 200 228 239 219 201 196 197 202 202 203 202 192 186 180 189
155 158 99 109 127 139 153 134 126 178 214 241 202 209 244 226 182 178 173 153 138 137 141 140 138 134 124 109 127 165 171 199 190 179 190 190 189 189 197 197 186 175 168 176
171 187 185 189 166 163 190 173 161 177 202 228 255 230 249 207 106 95 118 134 141 151 145 139 137 135 129 119 107 115 121 114 111 123 130 130 150 155 163 169 164 158 154 157
180 190 158 178 180 149 173 213 198 140 126 198 233 247 255 188 190 193 192 184 187 172 154 146 137 129 126 121 103 95 100 86 75 79 82 79 87 101 103 100 98 97 93 93
174 148 143 119 94 264 191 167 150 165 166 217 247 228 225 198 219 214 204 200 187 162 152 146 137 125 115 114 104 89 92 91 80 77 78 79 74 77 83 83 80 79 74 72
231 123 128 142 194 183 177 181 180 173 177 178 233 250 222 189 194 197 199 185 169 162 159 150 138 128 121 111 105 98 91 89 86 83 82 80 73 71 73 74 69 68 65 63
175 122 155 199 206 233 208 195 181 174 207 197 210 257 274 104 151 164 164 155 150 151 149 144 140 137 134 126 112 102 97 92 89 89 88 86 80 75 72 69 63 61 61 56
153 134 123 148 213 219 226 223 214 209 163 184 207 254 244 118 121 138 147 147 145 147 145 144 146 147 142 132 119 106 99 97 94 92 90 84 78 76 74 67 61 59 60 57
147 159 178 190 188 169 192 207 208 203 204 218 224 236 214 186 178 173 169 165 162 165 161 161 159 152 140 131 122 114 101 96 96 91 88 82 74 71 69 65 59 54 54 55
145 189 218 230 210 164 182 196 202 210 213 213 231 237 231 201 198 193 179 168 169 175 177 175 168 158 147 137 127 118 109 97 94 91 86 80 73 68 65 61 56 52 50 50
162 179 186 241 246 214 214 206 205 215 223 234 248 253 238 212 194 181 176 176 185 189 186 177 167 160 157 150 140 127 113 98 95 93 86 79 77 72 66 62 59 56 50 44
164 152 163 215 178 86 245 219 209 215 220 221 237 247 246 231 214 199 189 188 194 193 185 177 172 166 158 151 141 131 118 104 98 94 87 80 80 75 65 61 59 53 44 38
157 151 156 149 138 215 237 203 204 219 228 224 236 248 225 216 210 202 190 190 195 187 177 171 163 155 145 134 125 118 114 111 106 99 89 79 77 75 66 62 55 43 34 27
160 154 161 174 205 248 260 208 198 212 239 228 235 245 235 200 190 239 196 181 183 175 161 152 145 137 130 128 126 121 115 111 106 100 91 80 77 75 63 54 41 28 15 9
165 154 172 186 201 226 239 193 174 178 249 232 224 234 219 165 210 233 166 144 133 124 125 125 121 117 121 122 124 122 119 113 106 100 91 79 73 73 66 48 28 9 354 344
178 183 200 201 217 249 232 175 137 181 238 242 218 227 201 193 210 144 117 106 107 110 112 115 115 114 119 123 125 121 115 108 99 92 87 76 64 63 62 43 16 356 345 336
178 184 196 193 213 238 180 151 177 205 106 83 35 191 140 125 108 110 112 114 113 111 110 114 114 109 103 115 123 117 108 96 88 86 84 75 61 55 51 36 8 351 340 337
190 190 182 191 212 189 153 159 134 116 132 125 112 102 121 122 125 122 122 121 117 117 116 114 116 107 89 83 108 116 106 99 97 95 89 79 62 54 41 23 360 347 349 343
211 128 149 187 217 168 133 90 90 87 112 106 107 120 124 132 136 131 130 127 123 118 118 118 120 119 107 87 84 94 102 104 111 108 102 94 82 60 34 6 354 344 336 331
167 157 166 202 184 102 225 196 164 130 113 107 101 110 125 132 138 140 138 136 133 126 120 123 128 127 121 110 97 91 93 104 109 112 103 83 63 45 8 349 313 302 268 268
180 169 172 200 184 174 194 175 158 152 154 148 134 121 121 139 143 138 137 136 133 130 126 126 124 125 124 119 109 94 83 94 113 114 102 86 66 26 358 340 327 322 314 311